This demonstration page uses our WeatherBlox Daily Observations layout. Learn more.

40.92945, -100.16068

Hourly Observations for January 15, 2020

Temp ( °F °C ) Dew Point ( °F °C ) Humidity (%) Winds ( mph kmh ) Pressure ( in mb ) Visibility ( mi km ) Precip ( " mm )
12:15 am 00:15 Cloudy with Mist and Fog 28 -2.1 28 -2.1 100 100 E 8 13 30.02 1017 1 1.60934 0 0
12:35 am 00:35 Cloudy with Mist and Fog 28 -2.1 28 -2.1 100 100 E 6 9 30.02 1017 1 1.60934 0 0
12:55 am 00:55 Cloudy with Mist and Fog 28 -2.2 28 -2.2 100 100 E 6 9 30.03 1017 1 1.60934 0 0
1:15 am 01:15 Cloudy with Mist and Fog 28 -2.3 28 -2.3 100 100 E 5 7 30.02 1017 1 1.60934 0 0
1:35 am 01:35 Cloudy with Mist and Fog 28 -2.3 28 -2.3 100 100 E 5 7 30.02 1017 1 1.60934 0 0
1:55 am 01:55 Cloudy with Mist and Fog 28 -2.5 28 -2.5 100 100 Calm 30.03 1017 1 1.60934 0 0
2:15 am 02:15 Cloudy with Mist and Fog 28 -2.2 28 -2.2 100 100 NW 5 7 30.06 1018 1 1.60934 0 0
2:35 am 02:35 Cloudy with Mist and Fog 28 -2.2 28 -2.2 100 100 NW 5 7 30.07 1018 1 1.60934 0 0
2:55 am 02:55 Cloudy with Mist and Fog 28 -2 28 -2 100 100 WNW 6 9 30.08 1019 1.25 2.011675 0 0
3:15 am 03:15 Cloudy with Mist and Fog 28 -2 28 -2 100 100 NW 6 9 30.09 1019 1.25 2.011675 0 0
3:35 am 03:35 Cloudy with Mist and Fog 29 -1.8 29 -1.8 100 100 NW 5 7 30.08 1019 1.25 2.011675 0 0
3:55 am 03:55 Cloudy with Mist and Fog 29 -1.8 29 -1.8 100 100 NW 7 11 30.1 1019 1.25 2.011675 0 0
4:15 am 04:15 Cloudy with Mist and Fog 29 -1.5 29 -1.5 100 100 NW 12 19 30.11 1020 2 3.21868 0 0
4:35 am 04:35 Cloudy with Mist and Fog 29 -1.5 29 -1.6 99 99 NW 14 22 30.12 1020 5 8.0467 0 0
4:55 am 04:55 Cloudy 29 -1.5 28 -2 96 96 NNW 12 19 30.13 1020 7 11.26538 0 0
5:15 am 05:15 Partly Cloudy 28 -2.1 27 -2.8 95 95 NNW 12 19 30.16 1021 7 11.26538 0 0
5:35 am 05:35 Clear 27 -2.6 26 -3.5 94 94 NNW 8 13 30.16 1021 7 11.26538 0 0
5:55 am 05:55 Clear 26 -3.2 24 -4.4 92 92 N 9 15 30.2 1023 10 16.0934 0 0
6:15 am 06:15 Partly Cloudy 26 -3.6 23 -5.2 89 89 N 14 22 30.23 1024 10 16.0934 0 0
6:35 am 06:35 Mostly Cloudy 23 -5 21 -6.2 91 91 N 15 24 30.26 1025 10 16.0934 0 0
6:55 am 06:55 Mostly Cloudy 21 -5.9 19 -7.2 91 91 N 9 15 30.29 1026 10 16.0934 0 0
7:15 am 07:15 Partly Cloudy 20 -6.7 17 -8.5 87 87 N 12 19 30.3 1026 10 16.0934 0 0
7:35 am 07:35 Clear 18 -8 13 -10.5 82 82 NNW 13 20 30.33 1027 10 16.0934 0 0
7:55 am 07:55 Clear 17 -8.5 12 -10.9 83 83 NNW 9 15 30.36 1028 10 16.0934 0 0
8:15 am 08:15 Sunny 16 -9 12 -11.1 85 85 NNW 9 15 30.37 1028 10 16.0934 0 0
8:35 am 08:35 Sunny 16 -9 11 -11.5 82 82 NNW 8 13 30.38 1029 10 16.0934 0 0
8:55 am 08:55 Sunny 16 -8.8 11 -11.4 82 82 NW 10 17 30.38 1029 10 16.0934 0 0
9:15 am 09:15 Sunny 16 -9 11 -11.7 81 81 NNW 14 22 30.39 1029 10 16.0934 0 0
9:35 am 09:35 Sunny 17 -8.6 11 -11.4 80 80 NNW 13 20 30.41 1030 10 16.0934 0 0
9:55 am 09:55 Sunny 17 -8.3 12 -11 81 81 NNW 12 19 30.42 1030 10 16.0934 0 0
10:15 am 10:15 Sunny 18 -8 12 -11 79 79 N 14 22 30.42 1030 10 16.0934 0 0
10:35 am 10:35 Sunny 18 -8 12 -11.3 77 77 N 12 19 30.44 1031 10 16.0934 0 0
10:55 am 10:55 Sunny 18 -7.7 12 -11 77 77 N 9 15 30.45 1031 10 16.0934 0 0
11:15 am 11:15 Sunny 19 -7.2 13 -10.7 76 76 NNW 9 15 30.45 1031 10 16.0934 0 0
11:35 am 11:35 Sunny 19 -7 13 -10.6 76 76 N 9 15 30.45 1031 10 16.0934 0 0
11:55 am 11:55 Sunny 20 -6.6 13 -10.5 74 74 NNW 10 17 30.45 1031 10 16.0934 0 0
12:15 pm 12:15 Sunny 21 -6 15 -9.5 77 77 N 10 17 30.44 1031 10 16.0934 0 0
12:35 pm 12:35 Sunny 22 -5.5 16 -9.1 76 76 N 9 15 30.42 1030 10 16.0934 0 0
12:55 pm 12:55 Sunny 23 -4.9 16 -8.7 75 75 NNW 12 19 30.42 1030 10 16.0934 0 0
1:15 pm 13:15 Sunny 24 -4.6 16 -8.8 73 73 N 8 13 30.4 1030 10 16.0934 0 0
1:35 pm 13:35 Sunny 25 -4 17 -8.5 71 71 N 10 17 30.41 1030 10 16.0934 0 0
1:55 pm 13:55 Sunny 26 -3.6 17 -8.2 71 71 N 12 19 30.4 1030 10 16.0934 0 0
2:15 pm 14:15 Sunny 26 -3.4 17 -8.6 68 68 N 9 15 30.4 1030 10 16.0934 0 0
2:35 pm 14:35 Sunny 27 -3 17 -8.3 67 67 N 12 19 30.4 1029 10 16.0934 0 0
2:55 pm 14:55 Sunny 27 -3 17 -8.6 66 66 N 12 19 30.4 1029 10 16.0934 0 0
3:15 pm 15:15 Sunny 27 -2.7 16 -8.7 64 64 NNE 9 15 30.42 1030 10 16.0934 0 0
3:35 pm 15:35 Sunny 27 -3 16 -9.1 63 63 N 9 15 30.44 1031 10 16.0934 0 0
3:55 pm 15:55 Sunny 27 -3 15 -9.3 62 62 NNE 8 13 30.46 1031 10 16.0934 0 0
4:15 pm 16:15 Sunny 26 -3.4 15 -9.6 63 63 NE 8 13 30.47 1032 10 16.0934 0 0
4:35 pm 16:35 Sunny 25 -4 15 -9.6 65 65 NE 9 15 30.51 1033 10 16.0934 0 0
4:55 pm 16:55 Sunny 23 -4.8 14 -9.9 68 68 ENE 12 19 30.53 1034 10 16.0934 0 0
5:15 pm 17:15 Sunny 22 -5.8 13 -10.8 68 68 NE 10 17 30.56 1035 10 16.0934 0 0
5:35 pm 17:35 Sunny 20 -6.6 12 -11 71 71 NNE 15 24 30.57 1035 10 16.0934 0 0
5:55 pm 17:55 Clear 19 -7.3 11 -11.8 71 71 NNE 13 20 30.6 1036 10 16.0934 0 0
6:15 pm 18:15 Clear 18 -7.8 10 -12.1 72 72 NNE 10 17 30.64 1038 10 16.0934 0 0
6:35 pm 18:35 Clear 17 -8.5 9 -12.6 73 73 NNE 10 17 30.66 1038 10 16.0934 0 0
6:55 pm 18:55 Clear 16 -9 8 -13.3 71 71 NNE 8 13 30.67 1039 10 16.0934 0 0
7:15 pm 19:15 Clear 15 -9.3 8 -13.5 72 72 N 7 11 30.7 1039 10 16.0934 0 0
7:35 pm 19:35 Clear 15 -9.6 8 -13.6 73 73 N 9 15 30.7 1040 10 16.0934 0 0
7:55 pm 19:55 Clear 14 -10 8 -13.5 76 76 N 9 15 30.7 1040 10 16.0934 0 0
8:15 pm 20:15 Clear 14 -10.2 6 -14.2 73 73 N 9 15 30.72 1040 10 16.0934 0 0
8:35 pm 20:35 Clear 13 -10.5 6 -14.2 75 75 N 9 15 30.73 1041 10 16.0934 0 0
8:55 pm 20:55 Clear 13 -10.7 6 -14.5 74 74 N 9 15 30.74 1041 10 16.0934 0 0
9:15 pm 21:15 Clear 12 -11 6 -14.7 74 74 N 7 11 30.74 1041 10 16.0934 0 0
9:35 pm 21:35 Clear 12 -11.2 5 -15.1 73 73 N 7 11 30.75 1041 10 16.0934 0 0
9:55 pm 21:55 Clear 11 -11.5 5 -15.1 75 75 N 6 9 30.76 1042 10 16.0934 0 0
10:15 pm 22:15 Clear 11 -11.7 5 -14.9 77 77 Calm 30.77 1042 10 16.0934 0 0
10:35 pm 22:35 Clear 11 -11.8 4 -15.3 75 75 N 3 6 30.78 1042 10 16.0934 0 0
10:55 pm 22:55 Clear 10 -12 5 -15.1 78 78 NNE 3 6 30.79 1043 10 16.0934 0 0
11:15 pm 23:15 Clear 10 -12.1 4 -15.6 75 75 Calm 30.8 1043 10 16.0934 0 0
11:35 pm 23:35 Clear 10 -12.2 4 -15.6 76 76 Calm 30.81 1043 10 16.0934 0 0
11:55 pm 23:55 Clear 10 -12.1 3 -16.1 72 72 Calm 30.82 1044 10 16.0934 0 0

Powered by AerisWeather